Bennett, CO

5:42 AM MST on February 19, 2017 (GMT -0700)
Front Range

Weather History for KFTG - July, 2013

Change the Weather History Date:

Wednesday, July 17, 2013

  Actual Average (KDEN) Record (KDEN)
Temperature  
Mean Temperature 76 °F -  
Max Temperature 91 °F 88 °F 102 °F (2010)
Min Temperature 62 °F 60 °F 45 °F (1872)
Cooling Degree Days 12    
Growing Degree Days 26 (Base 50)    
Moisture  
Dew Point 53 °F    
Average Humidity 58    
Maximum Humidity 77    
Minimum Humidity 21    
Precipitation  
Precipitation 0.00 in - - ()
Sea Level Pressure  
Sea Level Pressure 30.26 in    
Wind  
Wind Speed 16 mph (SSE)    
Max Wind Speed 25 mph    
Max Gust Speed 32 mph    
Visibility 10 miles    
Events      
Averages and records for this station are not official NWS values.
T = Trace of Precipitation, MM = Missing Value Source: NWS Daily Summary

Daily Weather History Graph

Daily Weather History Graph

Search for Another Location

Airport or City:

Trip Planner

Search our weather history database for the weather conditions in past years. The results will help you decide how hot, cold, wet, or windy it might be!

Date:

Astronomy

Jul. 17, 2013 Rise Set
Actual Time 5:44 AM MDT 8:23 PM MDT
Civil Twilight 5:12 AM MDT 8:55 PM MDT
Nautical Twilight 4:33 AM MDT 9:34 PM MDT
Astronomical Twilight 3:48 AM MDT 10:18 PM MDT
Moon 3:16 PM MDT (7/17) 12:52 AM MDT (7/17)
Length of Visible Light 15h 42m
Length of Day
14h 39m
Waxing Gibbous, 68% of the Moon is Illuminated
Jul 17
Waxing Gibbous
Jul 22
Full
Jul 29
Last Quarter
Aug 6
New
Aug 14
First Quarter

Hourly Weather History & Observations

Time (MDT) Temp. Dew Point Humidity Pressure Visibility Wind Dir Wind Speed Gust Speed Precip Events Conditions
12:16 AM 64.4 °F 57.2 °F 77% 30.31 in 10.0 mi SSE 18.4 mph 24.2 mph N/A   Clear
12:36 AM 64.4 °F 57.2 °F 77% 30.31 in 10.0 mi SSE 18.4 mph 26.5 mph N/A   Clear
12:55 AM 64.4 °F 57.2 °F 77% 30.31 in 10.0 mi SSE 18.4 mph 26.5 mph N/A   Clear
1:16 AM 64.4 °F 55.4 °F 73% 30.30 in 10.0 mi SSE 18.4 mph 23.0 mph N/A   Clear
1:36 AM 64.4 °F 55.4 °F 73% 30.30 in 10.0 mi South 15.0 mph 21.9 mph N/A   Clear
1:55 AM 62.6 °F 55.4 °F 77% 30.29 in 10.0 mi South 16.1 mph 20.7 mph N/A   Clear
2:16 AM 62.6 °F 55.4 °F 77% 30.30 in 10.0 mi SSE 15.0 mph 20.7 mph N/A   Clear
2:35 AM 62.6 °F 55.4 °F 77% 30.29 in 10.0 mi SSE 13.8 mph 20.7 mph N/A   Clear
2:56 AM 62.6 °F 55.4 °F 77% 30.28 in 10.0 mi SSE 15.0 mph - N/A   Clear
3:16 AM 62.6 °F 55.4 °F 77% 30.28 in 10.0 mi South 12.7 mph - N/A   Clear
3:36 AM 62.6 °F 55.4 °F 77% 30.27 in 10.0 mi South 12.7 mph - N/A   Clear
3:56 AM 62.6 °F 55.4 °F 77% 30.27 in 10.0 mi South 12.7 mph - N/A   Clear
4:15 AM 62.6 °F 55.4 °F 77% 30.27 in 10.0 mi South 12.7 mph - N/A   Clear
4:36 AM 62.6 °F 55.4 °F 77% 30.27 in 10.0 mi South 13.8 mph 18.4 mph N/A   Clear
4:56 AM 62.6 °F 53.6 °F 72% 30.27 in 10.0 mi South 11.5 mph - N/A   Clear
5:15 AM 62.6 °F 53.6 °F 72% 30.27 in 10.0 mi South 13.8 mph 20.7 mph N/A   Clear
5:36 AM 62.6 °F 53.6 °F 72% 30.27 in 10.0 mi South 11.5 mph - N/A   Clear
5:56 AM 62.6 °F 53.6 °F 72% 30.28 in 10.0 mi South 10.4 mph - N/A   Clear
6:16 AM 62.6 °F 53.6 °F 72% 30.28 in 10.0 mi South 8.1 mph - N/A   Clear
6:36 AM 62.6 °F 53.6 °F 72% 30.29 in 10.0 mi South 12.7 mph 17.3 mph N/A   Clear
6:48 AM 62.6 °F 53.6 °F 72% 30.28 in 10.0 mi South 12.7 mph - N/A   Clear
7:52 AM 69.8 °F 55.4 °F 60% 30.30 in 40.0 mi South 13.8 mph 18.4 mph N/A   Clear
9:55 AM 77.0 °F 53.6 °F 44% 30.30 in 40.0 mi SSE 23.0 mph 31.1 mph N/A   Partly Cloudy
10:50 AM 80.6 °F 51.8 °F 37% 30.29 in 40.0 mi SSE 17.3 mph 28.8 mph N/A   Partly Cloudy
11:50 AM 82.4 °F 50.0 °F 32% 30.28 in 40.0 mi SSE 17.3 mph 28.8 mph N/A   Partly Cloudy
12:46 PM 84.2 °F 50.0 °F 30% 30.26 in 40.0 mi South 17.3 mph 28.8 mph N/A   Partly Cloudy
3:48 PM 91.4 °F 46.4 °F 21% 30.22 in 40.0 mi SSE 20.7 mph 29.9 mph N/A   Partly Cloudy
4:52 PM 89.6 °F 44.6 °F 21% 30.21 in 40.0 mi SSE 18.4 mph 29.9 mph N/A   Partly Cloudy
6:52 PM 86.0 °F 46.4 °F 25% 30.19 in 40.0 mi SSE 25.3 mph 32.2 mph N/A   Partly Cloudy
7:55 PM 82.4 °F 46.4 °F 28% 30.20 in 40.0 mi SSE 18.4 mph 27.6 mph N/A   Partly Cloudy
8:55 PM 77.0 °F 50.0 °F 39% 30.20 in 10.0 mi SSE 17.3 mph 24.2 mph N/A   Clear
9:16 PM 77.0 °F 50.0 °F 39% 30.21 in 10.0 mi SSE 13.8 mph - N/A   Clear
9:36 PM 75.2 °F 50.0 °F 41% 30.22 in 10.0 mi SSE 16.1 mph 23.0 mph N/A   Clear
9:55 PM 73.4 °F 51.8 °F 47% 30.22 in 10.0 mi SSE 18.4 mph 21.9 mph N/A   Clear
10:16 PM 73.4 °F 51.8 °F 47% 30.22 in 10.0 mi South 17.3 mph 27.6 mph N/A   Clear
10:36 PM 73.4 °F 51.8 °F 47% 30.22 in 10.0 mi South 16.1 mph 24.2 mph N/A   Clear
10:56 PM 73.4 °F 51.8 °F 47% 30.21 in 10.0 mi South 16.1 mph 23.0 mph N/A   Clear
11:16 PM 73.4 °F 51.8 °F 47% 30.21 in 10.0 mi South 18.4 mph 24.2 mph N/A   Clear
11:36 PM 73.4 °F 51.8 °F 47% 30.21 in 10.0 mi South 16.1 mph 28.8 mph N/A   Clear
11:56 PM 71.6 °F 51.8 °F 50% 30.20 in 10.0 mi South 16.1 mph 21.9 mph N/A   Clear